When you browse on this site, cookies collect data to enhance your experience and personalize the content and advertising you see.
Visit our Privacy Policy to learn more. By continuing to use the site, you agree to this use of cookies and data.
  • In Austria
  • List of Countries
  • For 7 days
  • Water Temperature
  • Weather Map
  • News
  • Weather Widgets
  • user-avatar
    Login

    Hourly Weather Chiangmaj

    Today, 28 May, Thursday

    Time Temperature Precipitation Wind Pressure Humidity
    00:00 +25°C° 0.1 mm 1 mps 688 mmHg 80%
    01:00 +24°C° 0 mm 1 mps 688 mmHg 85%
    02:00 +24°C° 0.1 mm 1 mps 688 mmHg 87%
    03:00 +23°C° 0.1 mm 1 mps 687 mmHg 88%
    04:00 +23°C° 0.1 mm 1 mps 687 mmHg 89%
    05:00 +24°C° 0.1 mm 1 mps 687 mmHg 88%
    06:00 +24°C° 0.1 mm 1 mps 687 mmHg 87%
    07:00 +25°C° 0 mm 1 mps 688 mmHg 82%
    08:00 +27°C° 0.2 mm 1 mps 689 mmHg 72%
    09:00 +30°C° 0.2 mm 1 mps 689 mmHg 62%
    10:00 +32°C° 0.2 mm 1 mps 690 mmHg 52%
    11:00 +34°C° 0.1 mm 2 mps 689 mmHg 46%
    12:00 +36°C° 0.1 mm 2 mps 689 mmHg 40%
    13:00 +37°C° 0.1 mm 2 mps 689 mmHg 34%
    14:00 +37°C° 0 mm 2 mps 688 mmHg 35%
    15:00 +36°C° 0 mm 2 mps 687 mmHg 36%
    16:00 +36°C° 0 mm 2 mps 687 mmHg 37%
    17:00 +32°C° 0.5 mm 2 mps 686 mmHg 50%
    18:00 +29°C° 0.5 mm 2 mps 685 mmHg 62%
    19:00 +26°C° 0.5 mm 1 mps 685 mmHg 75%
    20:00 +25°C° 0.5 mm 1 mps 686 mmHg 78%
    21:00 +25°C° 0.5 mm 1 mps 687 mmHg 81%
    22:00 +24°C° 0.5 mm 1 mps 688 mmHg 84%
    23:00 +24°C° 0.1 mm 1 mps 688 mmHg 85%

    Tomorrow, 29 May, Friday

    Time Temperature Precipitation Wind Pressure Humidity
    00:00 +24°C° 0.1 mm 1 mps 688 mmHg 85%
    01:00 +24°C° 0.1 mm 1 mps 688 mmHg 86%
    02:00 +24°C° 0.3 mm 1 mps 688 mmHg 87%
    03:00 +24°C° 0.3 mm 1 mps 687 mmHg 88%
    04:00 +23°C° 0.3 mm 1 mps 687 mmHg 88%
    05:00 +23°C° 0.2 mm 1 mps 687 mmHg 89%
    06:00 +23°C° 0.2 mm 1 mps 688 mmHg 89%
    07:00 +23°C° 0.2 mm 1 mps 688 mmHg 89%
    08:00 +26°C° 0 mm 1 mps 688 mmHg 77%
    09:00 +28°C° 0 mm 1 mps 689 mmHg 65%
    10:00 +31°C° 0 mm 1 mps 690 mmHg 53%
    11:00 +32°C° 0 mm 1 mps 689 mmHg 48%
    12:00 +35°C° 0 mm 2 mps 689 mmHg 43%
    13:00 +36°C° 0 mm 2 mps 689 mmHg 38%
    14:00 +36°C° 0 mm 2 mps 688 mmHg 38%
    15:00 +36°C° 0 mm 2 mps 687 mmHg 39%
    16:00 +36°C° 0 mm 2 mps 687 mmHg 39%
    17:00 +34°C° 0.2 mm 2 mps 687 mmHg 47%
    18:00 +31°C° 0.2 mm 2 mps 687 mmHg 55%
    19:00 +29°C° 0.2 mm 2 mps 686 mmHg 63%
    20:00 +27°C° 0.8 mm 2 mps 687 mmHg 71%
    21:00 +26°C° 0.8 mm 1 mps 688 mmHg 79%
    22:00 +24°C° 0.8 mm 1 mps 688 mmHg 87%
    23:00 +24°C° 0.1 mm 1 mps 688 mmHg 87%

    Day after tomorrow, 30 May, Saturday

    Time Temperature Precipitation Wind Pressure Humidity
    00:00 +24°C° 0.1 mm 1 mps 689 mmHg 87%
    01:00 +23°C° 0.1 mm 1 mps 689 mmHg 87%
    02:00 +23°C° 1.1 mm 1 mps 688 mmHg 89%
    03:00 +23°C° 1.1 mm 1 mps 688 mmHg 90%
    04:00 +23°C° 1.1 mm 1 mps 688 mmHg 92%
    05:00 +23°C° 0 mm 1 mps 688 mmHg 91%
    06:00 +23°C° 0 mm 1 mps 688 mmHg 89%
    07:00 +24°C° 0 mm 1 mps 689 mmHg 88%
    08:00 +26°C° 0 mm 1 mps 689 mmHg 77%
    09:00 +28°C° 0 mm 1 mps 690 mmHg 66%
    10:00 +31°C° 0 mm 1 mps 690 mmHg 54%
    11:00 +32°C° 0 mm 1 mps 690 mmHg 49%
    12:00 +35°C° 0 mm 2 mps 690 mmHg 44%
    13:00 +36°C° 0 mm 2 mps 690 mmHg 39%
    14:00 +35°C° 0.1 mm 2 mps 689 mmHg 42%
    15:00 +34°C° 0.1 mm 2 mps 688 mmHg 45%
    16:00 +34°C° 0.1 mm 2 mps 688 mmHg 48%
    17:00 +31°C° 0.1 mm 2 mps 688 mmHg 55%
    18:00 +29°C° 0.1 mm 2 mps 687 mmHg 62%
    19:00 +27°C° 0.1 mm 1 mps 687 mmHg 69%
    20:00 +26°C° 0.6 mm 1 mps 688 mmHg 75%
    21:00 +25°C° 0.6 mm 1 mps 688 mmHg 82%
    22:00 +24°C° 0.6 mm 1 mps 689 mmHg 88%
    23:00 +23°C° 0.1 mm 1 mps 689 mmHg 89%

    31 May, Sunday

    Time Temperature Precipitation Wind Pressure Humidity
    00:00 +23°C° 0.1 mm 1 mps 689 mmHg 90%
    01:00 +23°C° 0.1 mm 1 mps 689 mmHg 92%
    02:00 +23°C° 0 mm 1 mps 689 mmHg 92%
    03:00 +23°C° 0 mm 1 mps 688 mmHg 92%
    04:00 +23°C° 0 mm 1 mps 688 mmHg 93%
    05:00 +23°C° 0 mm 1 mps 689 mmHg 91%
    06:00 +23°C° 0 mm 1 mps 689 mmHg 90%
    07:00 +24°C° 0 mm 1 mps 689 mmHg 89%
    08:00 +26°C° 0 mm 1 mps 690 mmHg 77%
    09:00 +29°C° 0 mm 1 mps 691 mmHg 66%
    10:00 +31°C° 0 mm 1 mps 691 mmHg 55%
    11:00 +32°C° 0 mm 1 mps 691 mmHg 50%
    12:00 +33°C° 0 mm 1 mps 690 mmHg 46%
    13:00 +36°C° 0 mm 2 mps 690 mmHg 41%
    14:00 +36°C° 0 mm 2 mps 689 mmHg 41%
    15:00 +35°C° 0 mm 2 mps 688 mmHg 41%
    16:00 +35°C° 0 mm 2 mps 688 mmHg 40%
    17:00 +34°C° 0.1 mm 2 mps 687 mmHg 48%
    18:00 +31°C° 0.1 mm 2 mps 687 mmHg 55%
    19:00 +29°C° 0.1 mm 2 mps 687 mmHg 63%
    20:00 +27°C° 0.7 mm 2 mps 687 mmHg 70%
    21:00 +26°C° 0.7 mm 2 mps 688 mmHg 78%
    22:00 +24°C° 0.7 mm 1 mps 688 mmHg 86%
    23:00 +24°C° 0.2 mm 1 mps 688 mmHg 87%

    1 June, Monday

    Time Temperature Precipitation Wind Pressure Humidity
    00:00 +24°C° 0.2 mm 1 mps 688 mmHg 87%
    01:00 +24°C° 0.2 mm 1 mps 688 mmHg 88%
    02:00 +23°C° 0 mm 1 mps 688 mmHg 89%
    03:00 +23°C° 0 mm 1 mps 687 mmHg 90%
    04:00 +23°C° 0 mm 1 mps 687 mmHg 92%
    05:00 +23°C° 0 mm 1 mps 688 mmHg 90%
    06:00 +24°C° 0 mm 1 mps 688 mmHg 88%
    07:00 +24°C° 0 mm 1 mps 688 mmHg 87%
    08:00 +27°C° 0 mm 1 mps 689 mmHg 75%
    09:00 +29°C° 0 mm 1 mps 690 mmHg 63%
    10:00 +32°C° 0 mm 1 mps 690 mmHg 51%
    11:00 +33°C° 0 mm 1 mps 690 mmHg 47%
    12:00 +35°C° 0 mm 2 mps 690 mmHg 42%
    13:00 +37°C° 0 mm 2 mps 689 mmHg 37%
    14:00 +36°C° 0 mm 2 mps 688 mmHg 39%
    15:00 +36°C° 0 mm 2 mps 688 mmHg 41%
    16:00 +35°C° 0 mm 3 mps 687 mmHg 42%
    17:00 +32°C° 0.6 mm 2 mps 687 mmHg 54%
    18:00 +29°C° 0.6 mm 2 mps 686 mmHg 66%
    19:00 +26°C° 0.6 mm 1 mps 686 mmHg 78%
    20:00 +26°C° 0.6 mm 1 mps 686 mmHg 80%
    21:00 +25°C° 0.6 mm 1 mps 687 mmHg 83%
    22:00 +25°C° 0.6 mm 1 mps 687 mmHg 86%
    23:00 +24°C° 0 mm 1 mps 687 mmHg 87%

    2 June, Tuesday

    Time Temperature Precipitation Wind Pressure Humidity
    00:00 +24°C° 0 mm 1 mps 687 mmHg 89%
    01:00 +24°C° 0 mm 1 mps 687 mmHg 90%
    02:00 +24°C° 0 mm 1 mps 687 mmHg 91%
    03:00 +23°C° 0 mm 1 mps 686 mmHg 92%
    04:00 +23°C° 0 mm 1 mps 686 mmHg 93%
    05:00 +24°C° 0 mm 1 mps 686 mmHg 92%
    06:00 +24°C° 0 mm 1 mps 687 mmHg 90%
    07:00 +24°C° 0 mm 1 mps 687 mmHg 88%
    08:00 +27°C° 0.2 mm 1 mps 688 mmHg 78%
    09:00 +29°C° 0.2 mm 1 mps 688 mmHg 68%
    10:00 +31°C° 0.2 mm 2 mps 689 mmHg 57%
    11:00 +32°C° 0.3 mm 2 mps 688 mmHg 53%
    12:00 +34°C° 0.3 mm 2 mps 688 mmHg 50%
    13:00 +35°C° 0.3 mm 2 mps 688 mmHg 46%
    14:00 +35°C° 0.4 mm 3 mps 687 mmHg 47%
    15:00 +34°C° 0.4 mm 3 mps 686 mmHg 48%
    16:00 +34°C° 0.4 mm 3 mps 686 mmHg 49%
    17:00 +31°C° 0.2 mm 3 mps 686 mmHg 57%
    18:00 +29°C° 0.2 mm 2 mps 686 mmHg 65%
    19:00 +27°C° 0.2 mm 2 mps 686 mmHg 73%
    20:00 +26°C° 1.2 mm 1 mps 686 mmHg 78%
    21:00 +25°C° 1.2 mm 1 mps 686 mmHg 84%
    22:00 +24°C° 1.2 mm 1 mps 687 mmHg 89%
    23:00 +24°C° 0 mm 1 mps 686 mmHg 90%
    Show more